Retour au catalogue

NEIJIANG

ActifCommunicationsSSO
NORAD 63984·PAYLOAD·🇨🇳 China
Ce nom de satellite n'a pas encore été confirmé par des sources officielles.

Lancé May 14, 2025 depuis Jiuquan Satellite Launch Center

Loading…

Prochains Passages (prochaines 24 heures)

TLE

FraisSource: Space-Track

Époque: Sep 14, 2026, 22:27 UTC

1 63984U 25100C   26257.93548716  .00007868  00000-0  34983-3 0  9992
2 63984  97.3589 328.6808 0030393  50.9265 309.4668 15.21349927 74261

Suivez NEIJIANG en temps réel avec AllMySat

Download on the App Store